Hourly Data Report for January 01, 2018

All times are specified in Local Standard Time (LST). Add 1 hour to adjust for Daylight Saving Time where and when it is observed.

OTTAWA INTL A
ONTARIO

45°19'00.000" N
75°40'00.000" W
114.90 m
6106001
71628
YOW

Download Data

Hourly Data (January 2018)
Hourly Data Report for January 1, 2018
Temp Definition
°C
Dew Point Temp Definition
°C
Rel Hum Definition
%
Wind Dir Definition
10's deg

Wind Spd Definition
km/h
Visibility Definition
km
Stn Press Definition
kPa
Hmdx Definition


Wind Chill Definition


Weather Definition


TIME
00:00 -23.6 -27.3 72 29 10 24.1 101.50   -32 LegendNANA
01:00 -23.8 -27.4 73 28 9 24.1 101.49   -31 Mostly Cloudy
02:00 -24.4 -27.9 73 28 11 24.1 101.49   -33 LegendNANA
03:00 -25.7 -28.8 76 27 9 24.1 101.51   -33 LegendNANA
04:00 -26.2 -28.8 79 25 10 24.1 101.50   -35 Clear
05:00 -27.1 -29.8 79 27 8 24.1 101.46   -35 LegendNANA
06:00 -27.2 -29.8 79 21 7 24.1 101.45   -34 LegendNANA
07:00 -27.4 -29.9 79 24 6 24.1 101.46   -34 Clear
08:00 -28.6 -31.3 78 22 8 24.1 101.51   -36 LegendNANA
09:00 -27.0 -29.8 78 25 9 24.1 101.52   -35 LegendNANA
10:00 -24.6 -27.7 76 24 10 24.1 101.56   -33 Mainly Clear
11:00 -22.9 -26.6 72 31 9 24.1 101.51   -30 LegendNANA
12:00 -21.2 -26.2 65 36 4 24.1 101.42   -25 LegendNANA
13:00 -20.6 -26.2 61 36 1 24.1 101.31   -21 Mostly Cloudy
14:00 -19.5 -25.6 59 36 2 24.1 101.24   -21 LegendNANA
15:00 -19.9 -25.5 62 13 9 24.1 101.20   -27 LegendNANA
16:00 -19.4 -25.3 60 18 5 24.1 101.18   -24 Mostly Cloudy
17:00 -21.2 -26.1 66 13 11 12.9 101.16   -29 LegendNANA
18:00 -21.0 -25.2 70 11 7 16.1 101.17   -27 Snow
19:00 -20.6 -23.8 76 21 5 8.1 101.19   -25 Snow
20:00 -20.2 -22.8 80 33 4 9.7 101.19   -24 Snow
21:00 -20.5 -23.4 78 1 10 16.1 101.21   -28 LegendNANA
22:00 -21.4 -23.7 82 32 7 16.1 101.23   -27 Mostly Cloudy
23:00 -22.1 -24.3 83 31 10 16.1 101.26   -30 LegendNANA

Notes on Data Quality.

Legend

  • E = Estimated
  • M = Missing
  • NA = Not Available
Date modified: